CAPE
1194 1363 1016 1015 361 89 16 55 66 25 10 0 0 0 0 0 0 0 0 9 13 114 190 318 837 926 969 951 896 878 875 908 977 693 750 972 1170 1171 1347 1462 1394 1294 1267 1113 1318 1321 1576 1555 1541
870 1070 1230 1139 131 16 59 72 29 30 1 0 0 0 0 0 0 0 0 3 22 149 181 257 786 1360 1108 912 1124 1382 1287 1234 1195 963 873 1022 1144 954 1121 1252 1065 1120 1191 1130 1536 1488 1474 1518 1298
801 1124 1067 693 174 0 0 9 0 0 0 0 0 0 0 0 0 0 0 11 51 185 249 214 882 1474 995 516 863 825 1066 836 564 507 900 1103 1042 1119 1369 1299 1006 1247 1210 1339 1337 1307 1407 1393 1098
667 1074 1246 409 103 29 0 4 17 1 0 0 0 0 0 0 0 0 0 45 66 226 471 313 1257 1281 1196 826 1115 1233 1285 1172 1034 712 587 952 998 971 1265 1283 1059 1222 1092 1489 1363 1421 1388 1449 1056
431 1189 712 139 212 126 3 0 7 81 24 0 0 0 0 0 0 0 3 40 102 616 683 1184 1507 1139 1489 1432 1573 1286 1325 1093 995 919 920 749 900 1085 1078 1172 1007 1342 1480 1407 1296 1314 1220 1425 1254
1642 1893 343 33 102 224 22 138 88 95 0 0 0 0 0 0 0 2 38 102 381 517 1002 1371 1654 1530 1510 1515 1344 1245 1038 1080 849 753 846 1007 989 1158 1197 1147 1318 1160 1482 1485 1334 1490 877 888 911
646 1269 161 78 77 194 24 92 231 168 24 0 0 1 0 0 0 0 47 192 244 278 532 1144 1479 1701 1411 1508 1507 1096 755 635 1025 748 1115 1081 1156 1095 1114 1264 1158 1313 1254 1067 1043 1325 1057 903 672
911 1140 83 194 57 61 265 48 244 161 4 0 0 0 0 0 8 1 22 163 84 310 343 403 1184 1262 1498 1308 1386 794 880 874 539 531 437 1212 898 947 1320 1254 1269 1424 1164 1417 1449 1158 974 826 610
1641 884 109 187 185 175 30 226 125 225 17 2 0 0 0 14 22 15 63 168 53 48 306 617 508 849 967 642 841 574 944 914 770 513 661 642 420 180 581 464 1066 1063 1242 1267 1294 912 665 497 440
481 258 227 211 179 125 136 159 56 12 0 0 31 14 7 4 17 36 278 227 199 239 294 478 774 777 1121 999 684 341 395 265 450 207 181 64 47 241 64 465 753 716 1275 1190 983 601 495 304 384
77 90 195 274 300 278 156 156 114 17 9 70 11 2 24 0 35 77 258 355 225 179 273 320 430 440 726 1366 253 705 230 471 366 581 505 110 298 206 287 574 323 208 996 925 781 325 368 209 138
83 224 259 371 434 453 344 182 141 69 37 19 0 0 0 0 56 150 161 288 334 220 56 130 272 392 682 1027 243 968 967 593 554 557 625 538 398 328 303 240 160 225 340 427 409 128 167 66 0
41 78 265 427 610 536 518 335 400 289 65 3 0 0 0 0 45 165 161 96 180 66 69 134 155 111 519 925 744 813 720 726 330 610 607 509 309 336 301 270 307 129 316 184 384 248 298 86 158
50 83 118 145 519 718 471 535 672 292 22 0 0 0 0 0 8 72 115 77 16 119 149 41 124 76 698 552 585 517 474 717 716 618 876 924 691 254 271 193 124 157 161 203 309 153 181 105 103
49 121 4 104 307 224 2 174 563 333 17 0 0 0 0 0 0 0 1 33 79 54 106 84 316 506 484 503 762 835 570 384 320 763 582 723 508 273 0 39 96 234 395 97 225 195 223 147 56
87 17 1 71 271 278 141 1 286 279 206 35 42 14 0 0 0 0 0 0 18 23 119 103 670 309 380 277 432 953 803 766 584 487 103 85 412 144 88 33 112 657 284 29 32 52 166 430 449
25 20 30 4 78 306 266 320 340 398 346 156 113 109 48 3 0 0 0 0 0 2 36 225 476 286 423 477 294 458 914 559 576 479 330 501 788 832 603 674 588 934 591 141 587 571 453 394 420
11 0 2 0 70 189 387 699 655 530 347 270 224 149 112 64 31 1 0 0 14 18 11 2 241 444 367 885 772 795 629 62 57 428 496 763 1082 1016 650 848 438 324 571 797 921 720 948 885 800
7 0 0 18 65 131 121 922 854 496 362 405 296 230 136 112 66 9 0 0 250 174 62 94 172 460 666 919 765 727 617 326 541 965 866 1081 853 1298 994 904 1055 576 1226 1102 841 1141 1080 1052 1162
83 10 5 47 103 157 135 934 1023 526 479 485 385 280 221 139 105 84 63 56 430 344 286 309 303 575 722 711 684 683 570 674 869 1178 1053 1114 986 1401 1354 705 1100 1197 1011 1152 938 895 546 512 539
134 108 46 137 141 156 125 944 1076 676 576 619 550 440 246 175 128 249 209 215 341 539 573 494 484 503 616 787 928 821 447 677 829 771 939 1373 1592 1500 1564 1334 849 829 916 713 707 713 616 644 691
23 140 14 3 5 41 17 39 719 655 838 34 64 653 408 255 184 298 309 372 302 587 717 806 942 643 927 1312 1312 965 2 745 880 808 863 536 1104 1535 1061 1529 1356 1147 1245 733 742 706 958 667 205
0 0 0 0 0 0 3 0 190 217 218 39 71 715 621 379 294 276 395 329 428 655 682 624 1273 1145 1343 2034 1378 946 515 797 979 964 712 122 584 1489 1554 1187 1512 1259 998 869 720 704 624 493 399
0 0 0 0 0 0 0 0 147 305 383 223 137 89 761 516 390 333 480 412 502 835 951 735 986 1384 1334 1110 1661 1233 963 1385 1198 1049 480 54 211 1065 1080 1491 1331 1119 828 938 689 466 251 39 29
0 0 0 0 0 0 0 0 0 313 168 111 323 283 331 632 563 442 543 587 580 822 1076 1224 1031 1363 1408 1239 1876 1573 1015 1295 1122 844 547 587 493 871 1207 1218 949 911 756 504 370 86 5 0 0
0 0 0 0 0 0 0 0 222 400 350 347 133 46 219 351 612 617 679 750 682 983 973 1506 1339 1450 1618 1419 1267 2275 1474 1173 1238 984 715 976 759 1031 1048 877 797 655 454 219 60 0 0 0 0
0 0 0 0 0 0 0 0 204 143 150 37 24 90 219 261 669 851 855 937 852 1155 1099 1303 1576 1590 1797 1827 1614 1844 2099 1701 1170 926 983 1158 1019 1170 902 957 654 414 112 28 0 0 0 0 0
0 0 0 0 0 0 0 0 0 180 68 79 4 24 44 199 810 1013 1095 1149 1062 1319 1316 1440 1768 1806 1855 2294 2262 1869 2568 2120 1734 1457 1515 1319 1014 917 945 738 420 136 10 0 0 0 0 0 0
0 0 0 0 0 0 0 0 2 2 106 109 33 24 30 274 1178 1132 1325 1338 1265 1447 1532 1867 2047 2242 2355 2581 2676 2466 2289 2542 1959 1911 1512 1192 1007 909 757 522 238 36 0 0 0 0 0 0 0
0 0 0 0 0 0 0 0 0 0 61 155 27 0 13 189 1261 1293 1236 1480 1403 1515 1688 2056 2321 2511 2615 2661 2839 2845 2591 2683 2252 1650 1408 1265 1067 890 649 333 136 0 0 0 0 0 0 0 0
CIN
-52 -16 -33 -15 -34 -51 -14 -3 -36 -42 -58 0 0 0 0 -53 0 0 0 -103 -105 -37 -28 -25 -3 -2 0 -1 0 -1 0 -2 0 -38 -26 -7 -1 0 -2 0 0 0 0 -12 -6 -7 0 -3 -8
-135 -73 -14 -15 -36 -49 -4 -14 -28 -34 -91 0 0 0 0 0 0 0 -36 -137 -90 -56 -38 -47 -6 -1 -1 -11 -2 -1 -2 -2 -4 -8 -5 -1 0 -4 -1 -2 -2 -1 0 -6 0 0 0 -1 -14
-144 -60 -28 -37 -15 0 0 -46 -11 0 0 0 0 0 0 0 0 0 0 -133 -88 -24 -45 -57 -9 -1 -6 -49 -9 -7 -4 -6 -9 -7 -1 0 0 0 0 0 0 0 0 0 -1 0 0 -2 -15
-78 -4 -25 -31 -19 -34 0 -69 -71 -80 0 0 0 0 0 0 0 0 0 -132 -135 -38 -29 -78 0 -5 -5 -30 -3 -2 0 -2 -3 -4 -5 -1 0 -2 -1 0 0 -1 0 0 0 -1 -1 0 -13
-184 -48 -25 -12 -21 -29 -33 0 -85 -12 -84 0 0 0 0 0 0 -21 -114 -117 -120 -22 -20 -3 0 -35 -4 -1 -1 -4 -1 -2 -4 -8 0 -3 -1 -3 -3 0 -1 0 0 0 0 -2 -4 -1 -7
-1 -36 -19 -11 -14 -43 -28 -48 -32 -66 0 0 0 0 0 0 0 -97 -128 -111 -47 -51 -19 -10 0 -8 0 0 -6 -4 -4 -5 -26 -13 -4 -6 -3 0 0 0 0 -3 0 0 0 0 -22 -30 -24
-24 -34 -39 -44 -6 -21 -65 -131 -63 -60 -17 0 0 -43 0 0 0 -40 -125 -47 -51 -88 -77 -28 -6 -1 -19 -4 0 -10 -31 -46 -17 -9 -7 -5 -2 0 0 0 0 0 0 0 0 0 -15 -30 -34
-91 -74 -51 -41 -39 -20 -12 -67 -32 -52 -3 0 0 0 0 0 -121 -57 -24 -57 -101 -78 -83 -112 -31 -23 -12 -4 -3 -60 -35 -18 -36 -38 -43 -4 -7 -4 0 -1 -1 -1 0 0 0 -5 -19 -27 -32
-112 -84 -33 -47 -61 -39 -36 -11 -21 -39 -120 -48 -3 0 0 -215 -164 -106 -44 -41 -86 -98 -92 -76 -85 -67 -57 -76 -61 -61 -32 -31 -34 -43 -22 -16 -26 -42 -10 -16 -5 -4 0 0 0 -10 -28 -42 -34
-148 -49 -37 -50 -80 -44 -48 -34 -47 -36 0 0 -139 -175 -142 -83 -185 -132 -64 -87 -62 -102 -78 -85 -73 -81 -61 -59 -66 -90 -74 -78 -53 -66 -42 -70 -106 -70 -33 -19 -7 -9 -3 0 0 -21 -29 -38 -47
-98 -36 -30 -36 -41 -29 -53 -46 -96 -101 -5 -80 -141 -97 -247 0 -176 -98 -61 -61 -103 -71 -56 -51 -51 -58 -75 -51 -93 -75 -78 -69 -57 -43 -38 -58 -50 -52 -35 -19 -23 -21 -2 -9 -18 -41 -45 -51 -51
-45 -35 -36 -44 -34 -14 -11 -24 -31 -50 -66 -118 0 0 0 0 -169 -102 -67 -62 -57 -31 -49 -44 -61 -62 -46 -51 -71 -60 -47 -47 -41 -38 -27 -27 -16 -35 -33 -30 -36 -30 -26 -29 -37 -41 -47 -52 0
-105 -73 -74 -67 -15 -23 -9 -24 -8 -48 -129 -130 0 0 0 0 -137 -109 -92 -93 -57 -47 -65 -46 -138 -102 -66 -17 -36 -39 -25 -32 -45 -30 -21 -23 -31 -24 -30 -22 -27 -38 -22 -31 -23 -28 -22 -39 -36
-265 -134 -120 -92 -166 -43 -44 -39 -29 -52 -161 0 0 0 0 0 -209 -153 -97 -102 -112 -88 -84 -91 -97 -57 -47 -34 -46 -35 -23 -27 -21 -20 -11 -20 -28 -47 -40 -35 -45 -50 -51 -32 -20 -27 -37 -44 -34
-248 -73 -254 -331 -205 -136 -98 -74 -77 -115 -55 0 0 0 0 0 0 0 -8 -122 -73 -71 -75 -68 -72 -59 -33 -40 -33 -30 -29 -19 -32 -26 -36 -38 -36 -39 0 -51 -36 -54 -55 -48 -34 -35 -32 -40 -67
-166 -207 -78 -253 -226 -188 -167 -4 -111 -153 -150 -186 -202 -217 0 0 0 0 0 -3 -91 -119 -76 -87 -55 -58 -70 -69 -59 -28 -25 -17 -32 -40 -61 -85 -32 -62 -86 -77 -61 -17 -48 -117 -106 -104 -62 -41 -38
-220 -97 -207 -178 -253 -177 -196 -52 -113 -163 -155 -163 -199 -188 -180 -88 -2 0 0 0 0 -39 -51 -39 -50 -65 -69 -68 -51 -33 -31 -53 -41 -73 -78 -49 -26 -39 -48 -39 -39 -15 -40 -87 -34 -37 -50 -51 -50
-142 0 -187 -91 -58 -101 -112 -86 -107 -110 -144 -163 -206 -185 -160 -127 -76 -77 0 0 -65 -54 -73 -12 -65 -75 -79 -58 -44 -36 -44 -85 -55 -60 -67 -10 -18 -26 -39 -33 -66 -72 -45 -33 -25 -34 -24 -23 -31
-175 0 -34 -202 -215 -62 -119 -81 -80 -102 -75 -154 -203 -214 -171 -126 -82 -84 0 0 -70 -86 -102 -69 -78 -82 -74 -50 -42 -29 -35 -61 -48 -15 -29 -12 -27 -13 -31 -40 -23 -44 -17 -23 -30 -9 -17 -19 -16
-86 -105 -36 -87 -98 -19 -53 -53 -91 -108 -110 -112 -153 -171 -158 -130 -148 -114 -102 -89 -45 -66 -89 -97 -98 -87 -68 -64 -49 -34 -37 -36 -33 -24 -19 -24 -25 -8 -10 -26 -29 -18 -16 -9 -15 -22 -42 -49 -51
-68 -26 -109 -56 -42 -21 -16 -37 -20 -98 -138 -146 -166 -160 -156 -165 -161 -172 -128 -103 -94 -84 -69 -103 -105 -109 -82 -58 -55 -60 -58 -60 -25 -17 -30 -24 -15 -19 -8 -12 -34 -35 -32 -26 -31 -38 -42 -34 -29
-16 -46 -6 -7 -15 -83 -67 -45 -87 -130 -128 -239 -169 -191 -154 -167 -165 -173 -171 -137 -139 -100 -83 -92 -94 -123 -74 -47 -45 -39 -33 -50 -34 -29 -41 -53 -32 -19 -30 -14 -10 -14 -16 -51 -46 -52 -27 -40 -81
0 0 0 0 0 0 -55 0 -94 -246 -205 -223 -300 -171 -141 -145 -168 -199 -223 -171 -163 -150 -117 -118 -77 -94 -52 -25 -46 -50 -52 -51 -29 -33 -54 -96 -68 -24 -18 -20 -11 -19 -29 -31 -36 -32 -36 -46 -48
0 0 0 0 0 0 0 0 -93 -212 -110 -180 -253 -316 -145 -106 -156 -220 -228 -209 -186 -175 -161 -141 -113 -80 -66 -59 -48 -53 -50 -34 -30 -43 -65 -152 -100 -37 -34 -16 -16 -32 -50 -36 -42 -56 -82 -241 -160
0 0 0 0 0 0 0 0 0 -201 -149 -135 -164 -222 -209 -98 -124 -219 -235 -234 -208 -216 -204 -159 -135 -110 -96 -76 -46 -55 -49 -39 -52 -65 -72 -66 -82 -49 -31 -32 -23 -20 -35 -64 -76 -161 -94 0 0
0 0 0 0 0 0 0 0 -64 -74 -112 -159 -243 -240 -93 -149 -101 -168 -225 -231 -223 -241 -231 -167 -165 -138 -116 -93 -93 -32 -43 -41 -42 -54 -59 -51 -65 -35 -36 -35 -32 -43 -59 -106 -185 0 0 0 0
0 0 0 0 0 0 0 0 -65 -150 -162 -117 -223 -112 -163 -185 -141 -135 -205 -233 -223 -240 -254 -204 -184 -167 -146 -123 -103 -68 -29 -27 -50 -50 -37 -32 -48 -40 -42 -38 -58 -80 -179 -222 0 0 0 0 0
0 0 0 0 0 0 0 0 0 -57 -78 -112 -72 -183 -56 -108 -84 -109 -158 -204 -209 -219 -216 -201 -190 -167 -166 -130 -116 -106 -35 -26 -27 -34 -11 -19 -36 -47 -55 -56 -104 -206 -177 0 0 0 0 0 0
0 0 0 0 0 0 0 0 -20 -15 -70 -71 -120 -177 -72 -24 -56 -97 -120 -173 -184 -190 -213 -179 -177 -164 -153 -128 -114 -102 -73 -27 -27 -20 -25 -57 -82 -97 -100 -130 -194 -306 0 0 0 0 0 0 0
0 0 0 0 0 0 0 0 0 0 -49 -90 -99 -3 -27 -92 -54 -54 -97 -118 -164 -189 -204 -177 -177 -183 -160 -150 -125 -97 -82 -37 -34 -65 -70 -96 -99 -114 -142 -203 -281 0 0 0 0 0 0 0 0
Wind_Speed
22 22 20 18 22 29 32 27 25 22 13 13 11 8 6 7 8 11 7 28 31 25 20 19 17 25 19 19 21 7 29 26 25 19 18 25 25 22 24 24 22 21 21 21 22 22 23 24 25
23 22 18 15 25 32 33 30 29 25 19 23 18 20 6 8 7 12 16 34 32 19 20 20 22 24 27 18 24 26 24 26 24 21 21 24 23 23 23 23 21 20 21 21 22 23 23 24 25
23 20 16 16 20 33 32 32 32 30 27 24 17 20 14 11 15 29 28 30 31 3 6 28 25 6 29 27 25 22 14 7 8 10 23 23 22 22 22 21 20 21 22 22 23 23 24 24 24
19 17 13 21 32 28 31 32 31 29 26 26 27 19 20 21 27 31 36 35 34 31 33 33 30 20 24 23 24 21 21 8 22 23 23 23 22 21 21 20 19 21 22 23 23 24 24 24 23
22 18 22 27 30 29 31 30 30 28 27 27 28 29 31 33 31 36 35 30 33 31 32 32 30 30 26 26 23 21 21 23 23 23 23 22 21 20 20 20 20 20 21 22 22 23 23 23 22
14 15 27 32 35 32 28 21 30 28 30 29 31 31 32 31 36 36 35 35 36 33 32 30 30 29 28 26 25 22 24 23 23 22 22 21 20 20 21 20 20 20 20 20 21 21 22 21 21
12 17 32 33 30 27 24 28 25 28 27 27 31 29 29 32 35 36 34 34 32 33 33 31 30 29 27 27 25 24 23 23 22 21 21 21 20 20 19 19 19 19 19 19 19 20 20 21 20
10 13 32 33 30 27 24 23 28 30 26 30 26 23 28 32 35 32 33 35 33 30 27 29 30 29 28 27 25 22 22 22 21 20 21 21 21 20 19 19 19 19 18 19 19 18 19 19 19
13 15 28 33 30 26 28 30 29 27 28 24 23 23 29 32 31 29 25 24 24 26 25 26 28 27 25 24 23 22 22 21 20 20 21 20 20 18 18 19 18 18 18 18 18 18 19 18 18
13 23 30 29 28 28 27 28 27 26 27 24 23 27 30 30 31 30 24 26 27 28 24 23 24 23 20 20 21 20 20 20 20 20 20 17 16 17 17 17 17 17 17 17 18 18 18 18 17
15 29 30 29 27 28 26 25 24 25 23 23 25 28 30 30 29 27 24 20 25 28 11 15 15 16 17 19 17 17 18 18 19 19 19 18 17 16 16 15 16 17 17 16 15 16 15 16 16
12 9 25 26 23 22 21 24 21 20 18 23 26 27 28 29 29 26 25 21 21 22 18 3 1 3 16 12 14 16 15 17 17 18 18 17 16 16 15 14 15 17 16 16 16 15 14 14 14
19 16 8 14 11 22 23 23 19 23 25 27 27 26 27 27 27 27 26 25 26 23 21 12 11 10 20 14 16 16 15 14 16 16 17 16 14 15 14 13 13 14 14 15 15 14 13 13 12
18 15 17 21 12 16 19 19 21 22 26 26 25 25 25 26 27 28 29 27 26 24 24 20 17 21 20 11 11 14 15 12 12 15 15 14 12 13 14 15 14 15 15 14 15 15 15 13 14
21 16 22 21 12 14 12 17 18 20 24 24 24 24 24 24 25 25 25 27 27 24 23 23 24 24 17 13 10 11 17 11 13 17 14 16 12 11 13 15 15 16 17 15 16 15 15 15 14
11 10 22 13 12 13 15 17 17 18 21 23 23 23 23 22 24 23 23 24 25 25 25 24 23 20 18 15 12 15 14 13 9 16 14 17 13 14 14 15 16 16 16 17 16 16 15 15 15
19 18 23 20 10 14 16 12 15 18 20 21 21 21 21 21 22 23 24 23 25 25 23 27 22 20 19 17 16 16 10 8 10 11 16 16 15 15 16 17 16 15 16 16 17 16 16 15 14
17 24 12 13 13 14 14 16 14 16 18 19 18 19 20 20 21 22 24 21 22 22 21 22 18 20 19 15 15 13 13 14 12 11 12 16 13 14 15 17 17 16 18 18 18 16 15 15 14
14 20 21 24 22 13 12 14 13 15 16 15 16 16 18 20 21 24 24 24 24 20 21 21 21 20 18 17 16 13 12 12 13 11 12 10 10 11 13 16 17 17 19 18 18 17 15 14 14
5 13 16 15 19 13 15 5 11 13 13 13 12 15 17 19 21 25 26 26 24 26 26 26 24 24 23 21 21 21 22 20 19 18 15 10 8 8 10 16 18 19 19 19 17 16 14 13 13
4 9 6 6 8 8 7 7 8 8 11 12 8 10 19 21 23 23 25 26 23 25 26 26 25 25 23 23 22 22 22 19 18 21 17 16 15 7 10 19 19 20 19 17 15 14 13 12 11
26 7 27 27 29 26 26 20 5 6 10 6 6 10 23 24 22 24 24 23 24 24 24 24 24 25 24 23 22 22 21 20 20 19 18 20 22 23 22 20 21 20 16 15 14 12 12 11 10
34 34 31 32 32 31 23 21 5 3 1 2 5 22 27 23 23 25 25 24 22 24 23 23 22 24 26 22 22 22 21 20 19 19 18 20 22 22 21 19 19 13 13 12 11 11 12 13 13
29 29 31 34 33 35 32 21 6 1 2 5 7 11 13 21 24 26 25 23 22 22 22 22 23 24 24 24 22 20 20 18 19 18 18 17 19 19 18 17 14 12 12 11 12 14 15 15 15
31 30 31 31 31 33 33 33 31 10 8 6 8 2 18 23 24 24 25 24 24 23 22 22 23 23 25 24 23 21 19 17 18 17 17 17 17 17 17 13 12 11 11 12 12 12 12 14 14
24 25 26 31 32 34 33 32 19 12 11 4 3 3 16 29 24 25 24 24 25 25 24 21 23 21 22 22 22 19 18 17 18 17 17 17 18 18 15 12 11 11 11 11 12 14 13 14 15
20 22 26 30 33 34 28 21 14 13 8 4 5 8 19 20 24 22 22 23 25 25 25 23 22 20 20 20 18 19 18 17 17 17 16 15 14 14 13 12 11 11 11 11 11 11 13 15 14
19 25 30 27 27 30 29 31 24 15 8 17 19 4 16 24 23 19 20 21 23 22 23 23 22 21 20 18 18 18 17 18 18 18 16 15 13 12 12 11 11 10 10 10 10 11 13 14 14
26 23 21 23 23 28 32 30 18 26 9 12 17 14 15 19 21 16 15 19 20 19 21 21 22 20 19 18 16 16 17 18 18 17 16 14 14 11 10 10 9 8 9 10 9 10 12 12 13
22 22 21 20 27 26 27 32 25 25 23 10 8 5 10 13 14 14 16 17 18 16 18 19 19 19 18 17 15 15 16 17 17 15 12 12 13 16 12 9 8 9 9 10 10 9 10 11 12
Wind_Direction
120 121 126 116 97 71 61 68 58 58 24 40 30 346 346 284 291 252 120 180 158 171 187 182 188 171 177 181 176 79 130 100 99 74 67 106 116 83 97 114 121 120 114 98 104 104 95 80 79
129 121 121 112 90 53 61 78 71 69 58 71 51 74 334 327 24 96 105 152 147 192 188 185 181 178 167 187 169 156 152 123 111 91 89 126 125 116 121 121 120 120 114 107 102 101 102 95 91
140 128 109 111 99 72 78 86 90 83 86 81 49 69 48 74 90 113 147 127 137 121 136 165 176 203 164 163 163 173 202 263 246 23 124 130 131 128 128 127 127 116 111 107 108 98 99 103 102
129 137 128 102 78 94 93 93 97 99 101 74 68 49 55 92 108 119 132 133 160 165 146 154 161 186 176 177 172 175 174 245 156 125 131 137 139 133 136 130 129 118 109 106 102 97 95 104 113
124 119 105 91 83 92 92 97 100 106 104 69 76 74 86 108 109 123 129 126 148 127 160 157 160 150 167 166 170 175 174 156 149 144 143 131 141 135 131 125 123 118 106 103 99 98 100 103 107
135 121 97 80 71 89 71 123 94 100 92 83 84 86 117 134 141 144 148 151 145 153 148 151 152 145 143 161 160 171 156 135 134 137 145 138 131 132 122 122 118 112 104 98 95 99 103 103 106
117 119 84 82 85 88 95 109 116 108 105 105 106 102 120 127 136 148 153 135 131 138 145 150 152 148 129 150 137 124 144 129 124 137 137 132 128 129 119 116 116 115 102 97 99 98 106 110 113
121 126 80 78 85 92 96 109 111 104 106 110 107 111 121 131 139 138 122 137 125 126 121 132 150 148 143 147 139 111 121 125 125 138 140 133 136 131 128 122 124 117 107 107 97 90 105 114 124
109 113 84 78 87 98 97 84 86 100 105 118 128 116 126 131 133 126 117 118 120 125 122 126 135 136 133 130 128 117 126 128 133 144 142 140 150 154 133 120 121 120 116 115 106 108 118 118 118
105 103 88 89 98 96 96 93 100 97 108 113 105 106 124 130 133 137 121 131 135 135 131 126 131 128 117 114 127 114 121 121 137 144 138 95 115 150 135 129 112 123 121 114 124 120 119 130 130
116 78 79 84 97 90 92 81 105 102 102 112 111 117 128 135 140 136 127 119 139 156 108 118 113 114 115 127 115 115 121 124 136 146 149 137 132 136 141 118 100 114 118 114 119 129 128 132 129
130 314 89 87 93 104 102 99 101 105 111 115 117 121 128 134 140 139 141 132 133 137 129 309 36 302 129 106 110 119 120 126 132 149 160 140 144 135 130 108 89 103 114 135 128 131 124 136 154
315 334 123 342 142 96 98 88 96 75 97 106 115 120 129 136 140 144 146 143 146 144 142 129 120 114 147 122 131 126 120 122 139 136 152 146 96 108 116 91 88 104 115 139 147 129 141 122 121
299 331 18 327 207 121 108 99 74 87 105 106 114 123 132 143 149 153 151 149 149 148 151 143 139 144 140 92 90 111 122 85 107 131 136 131 86 92 106 104 84 110 121 109 104 86 80 81 176
305 201 41 125 165 144 136 109 98 104 113 114 119 126 135 148 152 151 148 150 150 144 144 143 147 148 131 118 97 101 143 92 103 121 109 224 95 93 117 123 115 126 128 113 104 84 115 165 186
210 233 327 124 141 137 124 108 112 123 119 122 126 131 138 145 153 149 152 149 146 146 146 145 145 140 136 122 114 131 126 112 35 144 144 178 139 89 86 111 115 121 121 136 133 160 170 183 187
23 3 262 242 153 156 155 135 125 127 121 119 126 133 140 147 153 152 153 148 148 148 140 149 140 140 136 125 123 136 96 73 61 45 174 144 123 81 91 110 99 93 114 120 133 156 164 169 175
9 355 167 191 171 164 176 200 122 112 113 119 116 131 144 148 153 150 152 143 147 146 147 148 130 138 133 120 119 103 114 137 130 122 110 137 100 80 84 92 96 114 127 130 137 142 151 158 192
9 17 257 263 235 211 203 179 133 126 117 108 125 123 142 151 154 150 151 153 151 144 143 145 140 140 130 127 125 125 123 120 125 118 116 96 55 73 77 95 107 116 148 148 157 154 164 182 192
23 1 6 74 212 189 211 99 132 127 122 105 112 131 146 152 153 151 153 154 145 149 150 148 146 143 140 140 139 146 149 158 156 127 116 82 41 26 56 109 124 140 155 163 133 127 147 161 132
318 325 336 289 192 356 44 46 103 88 87 81 35 145 163 161 160 149 152 152 142 146 149 147 147 148 145 145 137 135 138 149 136 141 122 111 96 20 58 155 154 155 156 146 133 115 123 136 142
289 223 290 300 310 324 319 348 18 107 124 53 158 174 173 168 161 157 152 148 148 145 143 144 147 150 149 147 141 138 138 135 142 135 127 139 149 161 159 183 171 164 116 121 105 121 91 102 136
290 289 292 295 296 294 331 330 351 123 173 108 118 173 182 166 161 159 157 153 149 148 147 148 144 150 155 140 145 145 141 142 139 130 125 132 147 162 155 152 153 80 73 76 79 59 48 32 36
301 304 295 292 296 287 280 326 334 317 135 134 155 174 169 168 163 163 159 154 151 148 147 150 150 155 157 159 150 146 143 136 126 121 122 128 143 146 142 137 106 81 71 63 39 20 15 11 10
291 293 295 294 294 293 272 300 309 204 169 135 162 43 283 174 164 159 159 156 154 152 150 150 152 154 158 159 157 152 148 136 135 126 126 124 132 137 137 121 91 67 52 41 38 38 38 24 22
299 291 297 293 293 294 298 310 340 109 145 97 17 344 179 187 172 161 160 160 160 157 154 151 154 152 155 156 158 151 148 144 142 136 135 139 135 135 123 99 63 66 64 53 33 18 30 31 24
297 300 296 297 291 293 302 325 344 12 45 84 61 117 170 174 177 165 161 160 162 158 159 155 156 153 153 154 152 155 153 145 140 142 143 138 126 120 115 100 88 84 75 68 51 42 26 20 30
318 311 293 292 295 292 294 294 312 0 8 357 345 16 212 180 176 165 163 160 161 158 159 160 158 157 155 152 152 155 153 152 147 152 142 132 124 111 110 104 98 85 74 67 56 48 28 20 30
308 296 302 300 292 290 285 283 296 328 20 1 356 1 260 145 163 161 159 161 161 157 158 161 162 159 155 155 153 150 154 153 154 148 139 133 123 116 111 100 85 66 57 44 53 40 32 32 25
316 323 311 294 288 287 292 272 267 332 355 80 81 20 66 31 139 152 157 160 162 160 160 162 164 164 164 160 157 154 152 153 154 150 137 121 121 131 119 100 72 58 65 57 50 45 37 38 37